Погода в Угольном

Россия / Республика Саха (Якутия)     65°44′59″N   149°44′50″E
темп.,
°C
ветер,
м/с
пор.,
м/с
влажн.,
%
обл.,
%
осадки,
мм/ч
давл.,
гПа
погр.,
м
1 марта, пн
пн123:00−36ссз121000 0.0 102519
02:00−37ссз2210029 0.0 102419
05:00−37сз229725 0.0 102319
08:00−37сз229580 0.0 102319
11:00−33сз229186 0.0 1023138
14:00−30ссз458798 0.0 1021350
17:00−32ссз229186 0.0 102120
20:00−36сз339563 0.0 102219
2 марта, вт
вт223:00−37сз229661 0.0 102219
02:00−37сз229534 0.0 102319
05:00−38ссз129736 0.0 102319
08:00−38сз119993 0.0 102519
11:00−34ююз119291 0.0 102574
14:00−31ююз118699 0.0 1026271
17:00−31ююв129499 0.0 102678
20:00−34ю1297100 0.0 102719
3 марта, ср
ср323:00−33ююв1296100 0.0 102719
02:00−34ююв2298100 0.0 102619
05:00−34юв1198100 0.0 102519
08:00−34юв1198100 0.0 102519
11:00−32юв1193100 0.1 1023182
14:00−31в1187100 0.1 1021288
17:00−32с2293100 0.1 101919
20:00−36сз349684 0.0 101820
4 марта, чт
чт423:00−35сз7119392 0.0 1015251
02:00−33сз111593100 0.1 1012453
05:00−33сз141893100 0.4 1009508
08:00−33сз162291100 0.4 1006539
11:00−32сз182491100 0.7 1002695
14:00−30сз202691100 0.4 999750
17:00−30сз202692100 0.9 997884
20:00−29сз182491100 0.6 997939
5 марта, пт
пт523:00−28сз182490100 1.0 9971012
02:00−27сз172390100 0.4 997984
05:00−26сз172387100 0.6 9981032
08:00−26сз172286100 0.1 9991039
11:00−25сз172285100 0.3 10001306
14:00−25сз162288100 0.2 10011302
17:00−26сз152186100 0.4 10021302
20:00−27сз152186100 0.1 1004865